weather.gov     
National Weather Service

Terminal Aerodrome Forecast
NWS Homepage
This page is being discontinued on March 12, 2014.
The same data is available at this site. Please update your bookmarks.
Thank you, and we apologize for the inconvenience.
Please send an email to SR-SRH.Webmaster@noaa.gov with any concerns.


Current Version
Previous Version:    01  02  03  04  05  06  07  08  09  10  11  12  13  14  15  16  17  18  19  20  21  22  23  24  25  26  27  28  29  30  
   31  32  33  34  35  
[Printable]
184
FTUS46 KOTX 252320
TAFMWH
TAF
KMWH 252320Z 2600/2624 17008KT P6SM -RA SCT050 BKN080 BKN100
     FM260100 19011G20KT P6SM -SHRA SCT030 BKN060
     FM260600 21020G30KT P6SM SCT050 BKN100
     FM261400 19016KT P6SM SCT150
     FM261800 23018G24KT P6SM SCT060 SCT150=


184
FTUS46 KOTX 252320
TAFMWH
TAF
KMWH 252320Z 2600/2624 17008KT P6SM -RA SCT050 BKN080 BKN100
     FM260100 19011G20KT P6SM -SHRA SCT030 BKN060
     FM260600 21020G30KT P6SM SCT050 BKN100
     FM261400 19016KT P6SM SCT150
     FM261800 23018G24KT P6SM SCT060 SCT150=




U.S. Dept. of Commerce
NOAA National Weather Service
1325 East West Highway
Silver Spring, MD 20910
E-mail: w-nws.webmaster@noaa.gov
Page last modified: May 16, 2007
NATIONAL WEATHER SERVICE: for Safety, for Work, for Fun - FOR LIFE